Погода в Славгороде

Украина / Днепропетровская область     48°06′51″N   35°30′47″E
темп.,
°C
ветер,
м/с
пор.,
м/с
влажн.,
%
обл.,
%
осадки,
мм/ч
давл.,
гПа
погр.,
м
11 апреля, вс
вс1100:00+6ссв47585 0.0 1025121
03:00+5ссв48645 0.0 1026130
06:00+4ссв410675 0.0 1026196
09:00+9св7115035 0.0 1026773
12:00+13ссв8103831 0.0 10251207
15:00+15св8935100 0.0 10231398
18:00+13ссв7104399 0.0 1023969
21:00+10св61357100 0.0 1024578
12 апреля, пн
пн1200:00+9ссв61263100 0.0 1022421
03:00+9св61165100 0.0 1022501
06:00+8св5978100 0.0 1021297
09:00+11св5677100 0.0 1020403
12:00+16св4560100 0.0 1019907
15:00+18в4651100 0.0 10181587
18:00+13ююз5677100 0.0 1019344
21:00+11ю478462 0.0 1021404
13 апреля, вт
вт1300:00+10ююв4687100 0.0 1021344
03:00+9ююв3587100 0.0 1021295
06:00+8ююв35925 0.0 1021177
09:00+11ююв4473100 0.0 1021482
12:00+15ююв455884 0.0 10211291
15:00+14юв556188 0.0 10201036
18:00+13ююв3665100 0.0 1020302
21:00+11ю367358 0.0 1021343
14 апреля, ср
ср1400:00+8ююв35905 0.0 1020119
03:00+7ююв229487 0.0 102037
06:00+6вюв229369 0.0 101929
09:00+11ю237291 0.0 1018436
12:00+15ю44521 0.0 10171372
15:00+17ю4643100 0.0 10162137
18:00+15ююз5651100 0.0 1016685
21:00+11ююз3772100 0.0 1016157
15 апреля, чт
чт1500:00+9ю2383100 0.0 101661
03:00+9ююв228782 0.0 101536
06:00+8ююв339392 0.0 101654
09:00+12юв34623 0.0 1015476
12:00+16юв34455 0.0 10131301
15:00+15ю4557100 0.1 1012797
18:00+13ю4666100 0.5 1012791
21:00+9ююв4789100 1.4 1013530